GW2134 Weather Reports


time (UTC)temp
C
wind
direction
speed
KPH
gust
KPH
rain 1hr
cm
rain 24hr
cm
rain mn
cm
humidity
%
barometer
mb
20260504081553 17 113 0.0 9.7 0.00 0.00 0.00 42 1021.1
20260504044601 12 0 1.6 8.0 0.00 0.00 0.00 48 1020.3
20260504043057 12 12 3.2 8.0 0.00 0.00 0.00 46 1020.3
20260504041553 12 0 0.0 4.8 0.00 0.00 0.00 44 1020.1
20260504040105 12 323 3.2 4.8 0.00 0.00 0.00 44 1019.9
20260504034610 12 355 1.6 6.4 0.00 0.00 0.00 44 1020.0
20260504033048 12 355 3.2 6.4 0.00 0.00 0.00 42 1019.9
20260504031552 12 332 3.2 6.4 0.00 0.00 0.00 42 1020.0
20260504030117 12 333 0.0 6.4 0.00 0.00 0.00 42 1020.0
20260504024555 12 320 3.2 6.4 0.00 0.00 0.00 41 1020.1
20260504023049 12 348 1.6 4.8 0.00 0.00 0.00 42 1020.3
20260504021554 12 355 0.0 4.8 0.00 0.00 0.00 44 1020.4
20260504020100 12 331 1.6 4.8 0.00 0.00 0.00 43 1020.5
20260504014601 12 360 1.6 4.8 0.00 0.00 0.00 45 1020.5
20260504013055 12 327 1.6 6.4 0.00 0.00 0.00 43 1020.6
20260504011550 12 318 1.6 6.4 0.00 0.00 0.00 45 1020.7
20260504010050 12 360 3.2 6.4 0.00 0.00 0.00 43 1020.7
20260504004551 12 321 3.2 6.4 0.00 0.00 0.00 42 1020.8
20260504003054 12 333 4.8 8.0 0.00 0.00 0.00 42 1020.8
20260504001604 12 23 0.0 4.8 0.00 0.00 0.00 43 1020.9
20260504000059 12 0 0.0 6.4 0.00 0.00 0.00 43 1021.0
20260503234550 12 30 0.0 8.0 0.00 0.00 0.00 44 1021.1
20260503233049 12 333 6.4 9.7 0.00 0.00 0.00 44 1021.2
20260503231553 13 315 4.8 8.0 0.00 0.00 0.00 44 1021.4
20260503230052 13 333 4.8 8.0 0.00 0.00 0.00 44 1021.5
20260503224554 13 338 1.6 6.4 0.00 0.00 0.00 44 1021.5
20260503223051 13 329 3.2 6.4 0.00 0.00 0.00 45 1021.5
20260503221602 13 5 3.2 6.4 0.00 0.00 0.00 45 1021.5
20260503220053 13 0 0.0 4.8 0.00 0.00 0.00 47 1021.4
20260503214601 13 0 0.0 4.8 0.00 0.00 0.00 48 1021.4
20260503213058 13 355 3.2 8.0 0.00 0.00 0.00 47 1021.3
20260503211557 13 323 3.2 6.4 0.00 0.00 0.00 49 1021.2
20260503210054 13 322 3.2 8.0 0.00 0.00 0.00 52 1021.2
20260503204557 14 338 3.2 8.0 0.00 0.00 0.00 53 1021.2
20260503203054 14 17 3.2 9.7 0.00 0.00 0.00 54 1021.0
20260503201552 14 342 3.2 6.4 0.00 0.00 0.00 54 1021.0
20260503200052 15 342 3.2 8.0 0.00 0.00 0.00 54 1020.9
20260503194553 15 336 3.2 8.0 0.00 0.00 0.00 54 1021.0
20260503193107 15 309 4.8 8.0 0.00 0.00 0.00 54 1020.8
20260503191553 15 340 3.2 6.4 0.00 0.00 0.00 54 1020.6
20260503190107 15 311 3.2 8.0 0.00 0.00 0.00 54 1020.5
20260503184552 15 336 4.8 8.0 0.00 0.00 0.00 50 1020.5
20260503183102 16 360 6.4 9.7 0.00 0.00 0.00 50 1020.4
20260503181552 16 343 4.8 9.7 0.00 0.00 0.00 49 1020.4
20260503180058 16 329 4.8 9.7 0.00 0.00 0.00 49 1020.2
20260503174553 17 326 4.8 8.0 0.00 0.00 0.00 49 1020.2
20260503173110 17 355 3.2 6.4 0.00 0.00 0.00 48 1020.2
20260503171555 18 347 3.2 6.4 0.00 0.00 0.00 46 1020.3